Regional Weather Roundup
Issued by NWS Kansas City/Pleasant Hill, MO

Home | Current Version | Previous Version | Text Only | Print | Product List | Glossary On
Versions: 1 2 3 4 5 6 7 8 9 10 11 12 13 14 15 16 17 18 19 20 21 22 23 24 25 26 27 28 29 30 31 32 33 34 35 36 37 38 39 40 41 42 43 44 45 46 47 48 49 50
000
ASUS43 KEAX 261411
RWREAX

WEATHER ROUNDUP FOR EASTERN KANSAS AND NORTHWEST MISSOURI
NATIONAL WEATHER SERVICE KANSAS CITY/PLEASANT HILL MO
800 AM CST FRI DEC 26 2014

KSZ040-057-103>105-MOZ028-029-037-043-261500-
...KANSAS CITY METROPOLITAN AREA...

CITY           SKY/WX    TMP DP  RH WIND       PRES   REMARKS
K.C. INTL      CLOUDY    43  35  73 S8        29.90R
K.C. DOWNTOWN  CLOUDY    48  36  63 S8        29.92R
LEES SUMMIT    MOCLDY    42  34  73 S6        29.93R
OLATHE - IXD   CLOUDY    44  37  76 S9        29.92R
OLATHE - OJC   CLOUDY    45  37  73 S9        29.91R
LAWRENCE       CLOUDY    44  34  67 S6        29.90R

$$

MOZ001>008-011>017-020>025-030>033-038>040-044>046-053-054-261500-
...NORTHERN AND CENTRAL MISSOURI...

CITY           SKY/WX    TMP DP  RH WIND       PRES   REMARKS
ST. JOSEPH     CLOUDY    36  31  82 NW9       29.91R WCI  29
MOSBY          CLOUDY    43  34  70 SE7       29.92R
WARRENSBURG    MOCLDY    41  34  75 S7        29.95R
WHITEMAN AFB   MOCLDY    43  37  78 S12       29.95R
CLINTON        PTCLDY    45  37  76 S8        29.97R
SEDALIA        MOCLDY    45  36  70 S13       29.97R
WARSAW         NOT AVBL
MARSHALL       CLOUDY    45  37  76 S8        29.96R
CHILLICOTHE      N/A     46  34  62 S12       29.94R
MOBERLY        CLOUDY    43  32  65 S12       29.97R
KIRKSVILLE     CLOUDY    37  34  89 SE7       29.95R WCI  32

$$

MOZ041-047>049-056>058-063>065-088>090-097-261500-
...EASTERN AND SOUTHERN MISSOURI...

CITY           SKY/WX    TMP DP  RH WIND       PRES   REMARKS
ST. LOUIS INTL MOCLDY    43  35  73 S9        30.07R
SPIRIT OF STL  CLEAR     43  36  76 VRB6      30.05S
COLUMBIA       MOCLDY    41  36  82 SE13      30.00R WCI  34
JEFFERSON CITY PTCLDY    42  35  76 E7        30.02R
MEXICO         MOCLDY    43  39  87 S13       29.99R
HANNIBAL       MOCLDY    43  34  70 S10       30.00R
ROLLA          CLEAR     41  36  82 S15       30.02S WCI  33
LEBANON        CLEAR     41  37  87 S9        30.03R
OSAGE BEACH    CLEAR     43  36  75 S10       30.01R
SPRINGFIELD    CLEAR     42  37  82 S15       30.01R WCI  34
BRANSON        PTCLDY    41  37  87 SE10      30.04S WCI  35
NEVADA         PTCLDY    43  39  87 S7        29.97R
JOPLIN         PTCLDY    48  42  80 S18G24    29.97R
WEST PLAINS    CLEAR     37  34  89 S10       30.10R WCI  30

$$

IAZ060-094-KSZ022-034>040-054-083-096-NEZ052-066-093-261500-
...KANSAS...SOUTHEAST NEBRASKA AND IOWA...

CITY           SKY/WX    TMP DP  RH WIND       PRES   REMARKS
TOPEKA         CLOUDY    37  33  85 CALM      29.91R
MANHATTAN      CLOUDY    34  32  92 N9        29.93R WCI  27
EMPORIA        CLOUDY    39  31  72 W8        29.89R WCI  33
CHANUTE        CLOUDY    44  40  85 S13       29.92R
WICHITA        CLOUDY    34  29  82 N14G20    29.89R WCI  25
OMAHA          CLOUDY    34  32  92 N14       29.96R FOG     WCI  25
LINCOLN        CLOUDY    32  28  85 N17       29.98R WCI  21
FALLS CITY     CLOUDY    33  31  92 N12       29.92R FOG     WCI  24
LAMONI         MOCLDY    33  29  85 W6        29.89R WCI  28
DES MOINES     MOCLDY    34  29  82 S6        29.90R WCI  29

$$



USA.gov is the U.S. government's official web portal to all federal, state and local government web resources and services.